Weather History for Eau Claire, WI

Change the Weather History Date:

Wednesday, August 7, 2013

  Actual Average Record
Temperature  
Mean Temperature 65 °F 71 °F  
Max Temperature 77 °F 82 °F 99 °F (1949)
Min Temperature 53 °F 60 °F 45 °F (1972)
Degree Days  
Heating Degree Days 0 1  
Month to date heating degree days 6 2  
Since 1 June heating degree days 95 75  
Since 1 July heating degree days 32 13  
Cooling Degree Days 0 6  
Month to date cooling degree days 11 42  
Year to date cooling degree days 375 408  
Since 1 June cooling degree days 343 376  
Growing Degree Days 15 (Base 50)    
Moisture  
Dew Point 57 °F    
Average Humidity 69    
Maximum Humidity 100    
Minimum Humidity 38    
Precipitation  
Precipitation 0.00 in 0.15 in 3.37 in (1980)
Month to date precipitation 0.37 1.05  
Year to date precipitation 26.92 18.70  
Snow  
Snow 0.00 in 0.00 in 0.00 in ()
Month to date snowfall 0.0 0.0  
Since 1 June snowfall 0.0 0.0  
Since 1 July snowfall 0.0 0.0  
Snow Depth 0.00 in    
Sea Level Pressure  
Sea Level Pressure 29.88 in    
Wind  
Wind Speed 5 mph (NW)    
Max Wind Speed 15 mph    
Max Gust Speed 24 mph    
Visibility 10 miles    
Events      
T = Trace of Precipitation, MM = Missing Value Source: NWS Daily Summary

Daily Weather History Graph

Daily Weather History Graph

Search for Another Location

Airport:

Trip Planner

Search our weather history database for the weather conditions in past years. The results will help you decide how hot, cold, wet, or windy it might be!

Date:

Astronomy

Aug. 07, 2013 Rise Set
Actual Time 5:58 AM CDT 8:23 PM CDT
Civil Twilight 5:26 AM CDT 8:56 PM CDT
Nautical Twilight 4:45 AM CDT 9:37 PM CDT
Astronomical Twilight 3:58 AM CDT 10:22 PM CDT
Moon 6:52 AM CDT (8/7) 8:24 PM CDT (8/7)
Length of Visible Light 15h 30m
Length of Day
14h 24m
New Moon, 1% of the Moon is Illuminated
Aug 7
New Moon
Aug 14
First Quarter
Aug 20
Full
Aug 28
Last Quarter
Sep 5
New

Hourly Weather History & Observations

Time (CDT) Temp. Dew Point Humidity Pressure Visibility Wind Dir Wind Speed Gust Speed Precip Events Conditions
12:24 AM 62.6 °F 60.8 °F 94% 29.76 in 10.0 mi South 4.6 mph - N/A   Scattered Clouds
12:56 AM 62.1 °F 61.0 °F 96% 29.75 in 10.0 mi SSW 4.6 mph - N/A   Clear
1:56 AM 61.0 °F 60.1 °F 97% 29.76 in 10.0 mi Calm Calm - N/A   Clear
2:56 AM 60.1 °F 59.0 °F 96% 29.77 in 10.0 mi WSW 3.5 mph - N/A   Clear
3:56 AM 59.0 °F 57.9 °F 96% 29.77 in 9.0 mi Calm Calm - N/A   Clear
4:12 AM 59.0 °F 57.2 °F 94% 29.78 in 8.0 mi West 4.6 mph - N/A   Scattered Clouds
4:20 AM 59.0 °F 59.0 °F 100% 29.78 in 8.0 mi Calm Calm - N/A   Mostly Cloudy
4:56 AM 60.1 °F 59.0 °F 96% 29.78 in 6.0 mi SW 3.5 mph - N/A   Overcast
5:06 AM 60.8 °F 60.8 °F 100% 29.79 in 7.0 mi WSW 3.5 mph - N/A   Overcast
5:56 AM 61.0 °F 61.0 °F 100% 29.79 in 8.0 mi NNW 4.6 mph - N/A   Overcast
6:38 AM 62.6 °F 60.8 °F 94% 29.83 in 10.0 mi NNW 5.8 mph - N/A   Overcast
6:56 AM 62.1 °F 61.0 °F 96% 29.83 in 10.0 mi Variable 3.5 mph - N/A   Overcast
7:49 AM 62.6 °F 60.8 °F 94% 29.85 in 9.0 mi NW 4.6 mph - N/A   Overcast
7:56 AM 63.0 °F 61.0 °F 93% 29.84 in 10.0 mi WNW 4.6 mph - N/A   Overcast
8:48 AM 64.4 °F 60.8 °F 88% 29.87 in 10.0 mi NNW 10.4 mph - N/A   Overcast
8:56 AM 64.0 °F 61.0 °F 90% 29.86 in 10.0 mi NW 8.1 mph - N/A   Overcast
9:56 AM 64.9 °F 60.1 °F 84% 29.89 in 10.0 mi NNW 5.8 mph - N/A   Overcast
10:26 AM 64.4 °F 60.8 °F 88% 29.91 in 10.0 mi NW 9.2 mph 16.1 mph N/A   Overcast
10:35 AM 66.2 °F 60.8 °F 83% 29.91 in 10.0 mi NNW 9.2 mph - N/A   Overcast
10:56 AM 68.0 °F 59.0 °F 73% 29.91 in 10.0 mi Variable 5.8 mph - N/A   Overcast
11:56 AM 69.1 °F 57.9 °F 68% 29.93 in 10.0 mi North 6.9 mph - N/A   Overcast
12:23 PM 71.6 °F 57.2 °F 60% 29.94 in 10.0 mi NNW 8.1 mph - N/A   Mostly Cloudy
12:43 PM 73.4 °F 57.2 °F 57% 29.94 in 10.0 mi NNW 6.9 mph - N/A   Mostly Cloudy
12:56 PM 73.0 °F 57.0 °F 57% 29.93 in 10.0 mi NNW 9.2 mph 17.3 mph N/A   Mostly Cloudy
1:56 PM 75.0 °F 54.0 °F 48% 29.93 in 10.0 mi NW 8.1 mph 17.3 mph N/A   Partly Cloudy
2:56 PM 75.9 °F 52.0 °F 43% 29.93 in 10.0 mi North 12.7 mph 17.3 mph N/A   Partly Cloudy
3:56 PM 75.9 °F 50.0 °F 40% 29.94 in 10.0 mi NNW 10.4 mph - N/A   Clear
4:56 PM 75.9 °F 48.9 °F 38% 29.93 in 10.0 mi NNW 10.4 mph - N/A   Clear
5:56 PM 75.9 °F 48.0 °F 37% 29.94 in 10.0 mi NNW 9.2 mph - N/A   Clear
6:56 PM 73.9 °F 48.9 °F 41% 29.94 in 10.0 mi North 8.1 mph - N/A   Clear
7:56 PM 70.0 °F 50.0 °F 49% 29.96 in 10.0 mi Calm Calm - N/A   Clear
8:56 PM 64.0 °F 52.0 °F 65% 29.98 in 10.0 mi Calm Calm - N/A   Clear
9:56 PM 60.1 °F 53.1 °F 78% 30.00 in 10.0 mi Calm Calm - N/A   Clear
10:56 PM 55.9 °F 52.0 °F 87% 30.02 in 10.0 mi Calm Calm - N/A   Partly Cloudy
11:56 PM 55.9 °F 53.1 °F 90% 30.02 in 10.0 mi Calm Calm - N/A   Clear